Wednesday, August 20, 2014
16:39 UTC
  |  Log In   |  Register Free
Airport Search:

Newnan Coweta County Airport
(KCCO)

Newnan Coweta County Airport Diagram
No Airport Diagram Available

FAA data valid effective July 24, 2014 until September 18, 2014 (unless otherwise noted).

 
 
 
 
 
 
 
 
 
 
 
 
 
 

Current Aviation Weather for Newnan Coweta County Airport (KCCO)

The most recent METAR observation for KCCO was updated at: 1835 UTC
METAR Summary (Translated METAR)
KCCO
281835Z AUTO 31010G21KT 280V340 10SM SCT047 SCT065 33/22 A2994 RMK AO2 T03300216
KFFC
(10.3 nm NE from KCCO)
281753Z AUTO 27011G17KT 8SM SCT044 32/22 A2994 RMK AO2 SLP129 T03220217 10328 20256 58010
TAF
No TAF information found within 50 nm of KCCO
  Airport Weather Conditions for KCCO

 Current Weather at CCO
87° F
Partly Cloudy
Northwest winds at 6.9 mph
CCO NOAA Radar

Pressure: 30.09 in
Humidity: 74%
Wind: Northwest at 6.9 MPH (6 KT)
Dew Point: 77.2°F
Visibility: 10.00 mi


Airport Weather Forecast for KCCO

Translated METAR and TAF for KCCO
Translated METAR for KCCO (1632 UTC 20 August 2014)
found at http://aviationweather.gov/adds/metars/
 
METAR text: KCCO 201615Z AUTO 33003KT 10SM SCT025 SCT038 BKN085 31/25 A3009 RMK AO2 T03100254
Conditions at: KCCO (NEWNAN , GA, US) observed 1615 UTC 20 August 2014
Temperature: 31.0°C (88°F)
Dewpoint: 25.4°C (78°F) [RH = 72%]
Pressure (altimeter): 30.09 inches Hg (1019.0 mb)
Winds: from the NNW (330 degrees) at 3 MPH (3 knots; 1.6 m/s)
Visibility: 10 or more miles (16+ km)
Ceiling: 8500 feet AGL
Clouds: scattered clouds at 2500 feet AGL
scattered clouds at 3800 feet AGL
broken clouds at 8500 feet AGL
Weather: automated observation with no human augmentation;
there may or may not be significant weather present at this time
Translated TAF for KCCO

There is no translated TAF available for this airport

Find All Airport Services Find A Hotel Find A Rental Car Find A Golf Course Find A Restaurant $100 Hamburger



FBO's on the Field
FBO Company Facility Photos Services Transportation Aviation Fuel Prices: Prices include tax
Catering Weather Repair Courtesy Rental Type 100LL JetA JetA+ MOGAS 8087
 
CCO Airport Services

This FBO has not yet been rated
FS:Shell
Last Updated: Jul-23
Login to update fuel prices
SS:
Contact CCO Airport ServicesMore FBO Information
 
Add another FBO Facility Photos Catering Weather Repair Courtesy Rental Type 100LL JetA JetA+ MOGAS 8087
Services Transportation Aviation Fuel Prices: Prices include tax


GlobalAir.com Airport Resource Center model-print
model-print
model-print
model-print